User: anonymous   Login
Location: Unspecified
(0.0000°N, 0.0000°E)
Time: 21:29:25
(UTC+00:00)
Language:

STARLINK-3897 - Orbit

View from above orbital plane
View from above orbital plane
View from above satellite
View from above satellite

Ground track
Ground track

The orbit is defined by the following mean orbital elements,

1 52537U          26145.39030057 +.00000000 +00000-0 -26290-4 0 00004
2 52537  53.2117 144.6035 0001036  68.7829 291.3273 15.08849299    08
Epoch (UTC): 25 May 2026 09:22:01
Eccentricity: 0.0001036
inclination: 53.2117°
perigee height: 539 km
apogee height: 540 km
right ascension of ascending node: 144.6035°
argument of perigee: 68.7829°
revolutions per day: 15.08849299
mean anomaly at epoch: 291.3273°

The dashed part of the orbit path shows where the satellite is in the earth's shadow,  

DLR